[[{"header":{"parameterUnit":"m.s-1","parameterCategory":1,"la1":30.2991,"la2":30.254,"lo1":-89.0895,"lo2":-89.0444,"dy":0.0017,"dx":0.0017,"nx":28,"ny":28,"refTime":"2024-08-09T09:00:00:Z","depth":0,"parameterNumber":2,"parameterNumberName":"U-component_of_WINDS"},"data":[0,0,0,0,0,0,0,0,0,0,0,0,0,0,0,0,0,0,0,0,0,0,0,0,0,0,0,0,0,0,0,0,0,0,0,0,0,0,0,0,0,0,0,0,0,0,0,0,0,0,0,0,0,0,0,0,0,0,1.7166,1.7166,0,1.72,1.7201,1.7201,1.7199,1.7199,1.7198,1.7198,1.7232,1.7233,1.7235,0,0,0,0,0,0,0,0,0,0,0,0,0,1.71,1.7101,1.7166,1.7167,1.7167,1.72,1.7201,1.7201,1.7199,1.7199,1.7198,1.7198,1.7232,1.7233,1.7235,0,0,0,0,0,0,0,0,0,0,0,0,0,1.7131,1.7102,1.7166,1.717,1.7171,1.72,1.7201,1.7201,1.72,1.7199,1.7198,1.7197,1.7231,1.7233,1.7235,1.7262,0,0,1.7241,1.7242,0,0,0,0,0,0,0,0,1.7129,1.7133,1.7169,1.717,1.7171,1.7195,1.719,1.7222,1.72,1.7189,1.7198,1.7197,1.722,1.7223,1.7231,1.7264,1.7265,1.7241,1.7243,1.7244,1.7244,0,0,0,0,0,0,0,1.7127,1.7132,1.718,1.717,1.7171,1.7171,1.7174,1.7196,1.7208,1.719,1.7189,1.7194,1.722,1.7229,1.7232,1.7266,1.7241,1.7243,1.7244,1.7245,1.7323,1.7324,0,0,0,0,0,0,1.7124,1.713,1.7178,1.7181,1.7148,1.7172,1.7176,1.7188,1.7208,1.721,1.7194,1.7193,1.7226,1.7229,1.7233,1.7266,1.7244,1.7245,1.7247,1.7323,1.7324,1.7324,0,0,0,0,0,0,1.7123,1.7128,1.7177,1.7155,1.7162,1.7174,1.7187,1.7189,1.7197,1.7211,1.7213,1.7201,1.7225,1.723,1.7255,1.7267,1.7246,1.7248,1.7322,1.7323,1.7324,1.7333,0,0,0,0,0,0,1.7121,1.7128,1.7138,1.7156,1.7163,1.7198,1.7188,1.719,1.7201,1.72,1.7218,1.722,1.7225,1.7252,1.7257,1.727,1.725,1.732,1.7322,1.7324,1.7331,1.7334,1.7336,0,0,0,0,0,1.7118,1.7139,1.7138,1.7144,1.7176,1.7199,1.7203,1.7209,1.7202,1.7212,1.7222,1.722,1.7266,1.7255,1.726,1.7274,1.732,1.7322,1.7324,1.733,1.7333,1.7336,0,0,0,0,0,0,1.7121,1.7141,1.7141,1.7168,1.7182,1.7199,1.7212,1.7212,1.7228,1.7227,1.7233,1.7237,1.7262,1.7271,1.7258,1.7302,1.7292,1.7295,1.7295,1.7298,1.7301,1.7298,1.7252,0,0,0,0,0,1.7125,1.7143,1.7159,1.7181,1.7188,1.7199,1.7209,1.7213,1.7228,1.7233,1.7244,1.7259,1.7277,1.7288,1.7305,1.7333,1.7337,1.7345,1.7348,1.735,1.7352,1.7368,1.7372,1.7331,1.7331,1.7331,0,0,1.7133,1.7146,1.7156,1.7182,1.7193,1.7211,1.7204,1.7223,1.7236,1.7236,1.726,1.7269,1.7286,1.7313,1.7325,1.732,1.7365,1.7352,1.7354,1.7355,1.737,1.7374,1.7378,1.7332,1.7332,1.7332,0,0,1.7156,1.7168,1.7188,1.72,1.7217,1.7225,1.723,1.7247,1.7253,1.7278,1.7279,1.7295,1.7325,1.7337,1.7347,1.7378,1.7377,1.7383,1.7396,1.7412,1.7415,1.7418,1.7428,1.7432,1.7386,1.7386,1.7386,0,1.7163,1.7191,1.7198,1.7217,1.7229,1.7231,1.7251,1.7262,1.7284,1.7292,1.7287,1.7326,1.7337,1.7367,1.7375,1.7383,1.7389,1.738,1.7414,1.7417,1.742,1.743,1.7434,1.7386,1.7386,1.7386,1.7386,0,1.7199,1.7218,1.7232,1.7254,1.7267,1.7287,1.7297,1.731,1.7313,1.7321,1.7347,1.7361,1.7381,1.7389,1.7391,1.7419,1.7416,1.7412,1.7402,1.7424,1.7434,1.7438,1.7387,1.7387,1.7387,1.7387,0,0,1.7222,1.725,1.7255,1.7265,1.7286,1.7301,1.7322,1.7342,1.7353,1.7369,1.7386,1.7413,1.741,1.7422,1.7426,1.744,1.7463,1.7435,1.7435,1.7439,1.7495,1.7496,1.7501,1.7463,1.7464,1.7464,1.7493,0,1.7247,1.7284,1.7292,1.7323,1.7341,1.7344,1.7362,1.7377,1.7386,1.7402,1.7412,1.7431,1.7426,1.7433,1.7447,1.7457,1.7474,1.7455,1.7479,1.7479,1.7473,1.7506,1.7507,1.7534,1.7497,1.7498,1.7498,0,1.7281,1.7298,1.7331,1.7351,1.7359,1.7375,1.7395,1.7411,1.7428,1.7434,1.7448,1.7451,1.7473,1.7463,1.7494,1.7481,1.7491,1.7498,1.7499,1.7501,1.7489,1.7507,1.7542,1.7546,1.7504,1.7504,1.7503,0,1.7294,1.7326,1.735,1.7359,1.7383,1.7394,1.7404,1.7421,1.7433,1.7451,1.7459,1.7479,1.749,1.7506,1.7515,1.7507,1.7544,1.7535,1.7549,1.7549,1.7556,1.7555,1.7592,1.7564,1.7564,1.7564,1.7564,0,1.732,1.734,1.7357,1.7372,1.7395,1.7404,1.7427,1.7437,1.7452,1.7469,1.7474,1.749,1.7501,1.7519,1.7526,1.755,1.7555,1.756,1.7562,1.7559,1.7558,1.7565,1.7563,1.7565,1.7565,1.7565,1.7565,0,1.7338,1.735,1.7377,1.7398,1.7403,1.7419,1.7437,1.7452,1.7462,1.7483,1.7489,1.7504,1.7525,1.7536,1.7563,1.7568,1.7595,1.7596,1.7589,1.7589,1.7602,1.76,1.7644,1.765,1.7619,1.7619,1.7619,0,1.7354,1.7369,1.7392,1.7404,1.7415,1.7434,1.7447,1.7458,1.7471,1.7493,1.7505,1.7527,1.7545,1.7579,1.7592,1.7612,1.7613,1.7627,1.7616,1.7613,1.7613,1.7611,1.7613,1.7628,1.7629,1.7629,1.7629,0,1.7379,1.7385,1.7403,1.7425,1.744,1.7457,1.7474,1.7483,1.7497,1.7512,1.7534,1.7548,1.7575,1.7597,1.7619,1.7629,1.7632,1.7633,1.7637,1.7634,1.7629,1.7631,1.7593,1.7631,1.7631,1.7631,1.7631,1.7631,1.7396,1.741,1.7429,1.745,1.7464,1.748,1.7495,1.7507,1.7526,1.7549,1.7555,1.7578,1.7597,1.7627,1.7638,1.7657,1.7654,1.766,1.7661,1.7663,1.7663,1.7627,1.7661,1.7661,1.7661,1.7661,1.7661,0,1.7422,1.7434,1.7454,1.7477,1.7494,1.7496,1.7515,1.7528,1.7549,1.7566,1.7584,1.761,1.7631,1.7647,1.7669,1.7681,1.7683,1.7686,1.7685,1.7687,1.7664,1.7658,1.7685,1.7685,1.7685,1.7685,1.7685,1.7685,1.7437,1.7461,1.7469,1.7501,1.7514,1.7537,1.7548,1.7563,1.7577,1.7606,1.7624,1.7634,1.7651,1.7675,1.7694,1.7699,1.7706,1.771,1.7714,1.7692,1.7689,1.7686,1.7681,1.7711,1.7711,1.7735,1.7735,1.7735]},{"header":{"parameterUnit":"m.s-1","parameterCategory":1,"la1":30.2991,"la2":30.254,"lo1":-89.0895,"lo2":-89.0444,"dy":0.0017,"dx":0.0017,"nx":28,"ny":28,"refTime":"2024-08-09T09:00:00:Z","depth":0,"parameterNumber":3,"parameterNumberName":"V-component_of_WINDS"},"data":[0,0,0,0,0,0,0,0,0,0,0,0,0,0,0,0,0,0,0,0,0,0,0,0,0,0,0,0,0,0,0,0,0,0,0,0,0,0,0,0,0,0,0,0,0,0,0,0,0,0,0,0,0,0,0,0,0,0,-2.951,-2.951,0,-2.9507,-2.9507,-2.9507,-2.949,-2.9489,-2.9489,-2.9489,-2.9483,-2.9483,-2.9484,0,0,0,0,0,0,0,0,0,0,0,0,0,-2.95,-2.9501,-2.951,-2.951,-2.951,-2.9507,-2.9507,-2.9507,-2.949,-2.9489,-2.9489,-2.9488,-2.9483,-2.9483,-2.9484,0,0,0,0,0,0,0,0,0,0,0,0,0,-2.9502,-2.9501,-2.951,-2.9501,-2.95,-2.9507,-2.9507,-2.9507,-2.949,-2.9489,-2.9489,-2.9488,-2.9483,-2.9483,-2.9484,-2.9498,0,0,-2.9485,-2.9485,0,0,0,0,0,0,0,0,-2.9502,-2.9502,-2.9503,-2.9502,-2.9501,-2.9498,-2.9502,-2.9504,-2.949,-2.9494,-2.9489,-2.9488,-2.9488,-2.9488,-2.9489,-2.9498,-2.9498,-2.9485,-2.9485,-2.9485,-2.9485,0,0,0,0,0,0,0,-2.9502,-2.9502,-2.9509,-2.9503,-2.9502,-2.9497,-2.9497,-2.9502,-2.9495,-2.9493,-2.9492,-2.9492,-2.9488,-2.9489,-2.9489,-2.9498,-2.9485,-2.9485,-2.9485,-2.9485,-2.9521,-2.9522,0,0,0,0,0,0,-2.9503,-2.9502,-2.9509,-2.9509,-2.95,-2.9498,-2.9497,-2.95,-2.9495,-2.9493,-2.9493,-2.9491,-2.9488,-2.9488,-2.9489,-2.9507,-2.9485,-2.9485,-2.9486,-2.952,-2.9521,-2.9522,0,0,0,0,0,0,-2.9503,-2.9504,-2.9509,-2.9505,-2.9506,-2.9499,-2.9502,-2.95,-2.9501,-2.9494,-2.9492,-2.9495,-2.9488,-2.9488,-2.9497,-2.9507,-2.9486,-2.9486,-2.9519,-2.9521,-2.9522,-2.9543,0,0,0,0,0,0,-2.9503,-2.9504,-2.9509,-2.9506,-2.9506,-2.9518,-2.9502,-2.95,-2.9502,-2.95,-2.9496,-2.9494,-2.9487,-2.9496,-2.9497,-2.9507,-2.9486,-2.9518,-2.952,-2.9521,-2.9542,-2.9545,-2.9548,0,0,0,0,0,-2.9502,-2.9515,-2.951,-2.9511,-2.9513,-2.9518,-2.9519,-2.9511,-2.9503,-2.9508,-2.9504,-2.9495,-2.9505,-2.9497,-2.9498,-2.9508,-2.9518,-2.9519,-2.9521,-2.954,-2.9545,-2.9548,0,0,0,0,0,0,-2.9518,-2.9514,-2.9508,-2.952,-2.952,-2.9515,-2.9522,-2.9515,-2.9517,-2.9515,-2.9505,-2.9504,-2.9515,-2.9512,-2.9503,-2.9523,-2.951,-2.9512,-2.9525,-2.9528,-2.9531,-2.9532,-2.9487,0,0,0,0,0,-2.9523,-2.9529,-2.9524,-2.9535,-2.9535,-2.9529,-2.9531,-2.9525,-2.9525,-2.9524,-2.9521,-2.952,-2.9523,-2.9525,-2.9528,-2.9541,-2.9541,-2.9549,-2.9552,-2.9554,-2.9556,-2.9565,-2.9569,-2.9527,-2.9527,-2.9527,0,0,-2.9533,-2.9532,-2.9535,-2.9538,-2.9537,-2.9544,-2.9529,-2.9535,-2.954,-2.9525,-2.9534,-2.9531,-2.9529,-2.9541,-2.9546,-2.9539,-2.9568,-2.9556,-2.9559,-2.9559,-2.9567,-2.9571,-2.9575,-2.9528,-2.9528,-2.9528,0,0,-2.9555,-2.9554,-2.9564,-2.9564,-2.9564,-2.956,-2.9562,-2.9559,-2.9558,-2.9567,-2.9556,-2.9561,-2.9567,-2.9567,-2.9567,-2.9592,-2.9584,-2.9593,-2.9609,-2.9618,-2.9621,-2.9624,-2.9635,-2.9638,-2.9595,-2.9595,-2.9595,0,-2.9568,-2.9577,-2.9569,-2.9577,-2.9579,-2.9568,-2.9578,-2.9578,-2.9579,-2.958,-2.9573,-2.9581,-2.9579,-2.9592,-2.9598,-2.9599,-2.9602,-2.9593,-2.9622,-2.9625,-2.9627,-2.9637,-2.9641,-2.9596,-2.9596,-2.9596,-2.9596,0,-2.9593,-2.9599,-2.9607,-2.961,-2.9613,-2.9621,-2.9616,-2.962,-2.9614,-2.9611,-2.9621,-2.9619,-2.9622,-2.9624,-2.9618,-2.9636,-2.9633,-2.9624,-2.961,-2.9633,-2.9642,-2.9645,-2.9598,-2.9597,-2.9597,-2.9597,0,0,-2.9624,-2.9624,-2.9627,-2.9629,-2.9629,-2.9634,-2.9642,-2.9647,-2.9651,-2.9652,-2.966,-2.9666,-2.9658,-2.9659,-2.9653,-2.9661,-2.9683,-2.9651,-2.9651,-2.9658,-2.9705,-2.9713,-2.9717,-2.9677,-2.9678,-2.9678,-2.9706,0,-2.9646,-2.9662,-2.9657,-2.9673,-2.968,-2.967,-2.9678,-2.9679,-2.9677,-2.9682,-2.9679,-2.9685,-2.9673,-2.9674,-2.9681,-2.9679,-2.9692,-2.9676,-2.9685,-2.9685,-2.9687,-2.9721,-2.9729,-2.9755,-2.9709,-2.971,-2.971,0,-2.9674,-2.9678,-2.9696,-2.9697,-2.9699,-2.9707,-2.9711,-2.9716,-2.9718,-2.9715,-2.9718,-2.9711,-2.972,-2.9707,-2.972,-2.971,-2.9713,-2.9712,-2.9713,-2.9714,-2.97,-2.9725,-2.9763,-2.9767,-2.9715,-2.9715,-2.9714,0,-2.9697,-2.9706,-2.9719,-2.972,-2.9721,-2.9727,-2.9728,-2.9729,-2.9732,-2.9736,-2.9738,-2.9743,-2.9745,-2.9749,-2.9743,-2.9734,-2.9758,-2.9744,-2.9757,-2.9758,-2.9763,-2.9763,-2.9804,-2.9763,-2.9763,-2.9763,-2.9763,0,-2.9723,-2.9734,-2.973,-2.9737,-2.975,-2.9744,-2.9757,-2.9756,-2.9758,-2.9765,-2.9756,-2.9764,-2.9756,-2.9762,-2.9758,-2.9771,-2.9771,-2.9771,-2.977,-2.9772,-2.9772,-2.9775,-2.9773,-2.9764,-2.9764,-2.9764,-2.9764,0,-2.975,-2.9748,-2.9761,-2.9761,-2.9762,-2.9772,-2.9772,-2.978,-2.9777,-2.9787,-2.9789,-2.9786,-2.9793,-2.9789,-2.9795,-2.9793,-2.981,-2.9806,-2.981,-2.981,-2.9824,-2.9823,-2.9868,-2.9874,-2.9829,-2.9829,-2.983,0,-2.9768,-2.9777,-2.9779,-2.9784,-2.9786,-2.9794,-2.9798,-2.9793,-2.9798,-2.9801,-2.9809,-2.9816,-2.9821,-2.9834,-2.9832,-2.9838,-2.9835,-2.985,-2.9835,-2.9838,-2.9837,-2.9837,-2.9839,-2.9853,-2.9854,-2.9854,-2.9854,0,-2.9799,-2.9798,-2.9805,-2.9812,-2.9818,-2.9823,-2.9827,-2.9832,-2.9827,-2.9833,-2.9841,-2.9846,-2.9855,-2.9862,-2.9868,-2.9868,-2.9861,-2.9859,-2.9863,-2.9866,-2.9869,-2.9869,-2.982,-2.9858,-2.9858,-2.9858,-2.9857,-2.9857,-2.9823,-2.9832,-2.9836,-2.9844,-2.9847,-2.9852,-2.986,-2.986,-2.9867,-2.9875,-2.9871,-2.9881,-2.9884,-2.9891,-2.9893,-2.9901,-2.9895,-2.9899,-2.9901,-2.9903,-2.9905,-2.9867,-2.9901,-2.9901,-2.9901,-2.9901,-2.9901,0,-2.9856,-2.9858,-2.9866,-2.9874,-2.9881,-2.9875,-2.988,-2.9886,-2.9896,-2.9899,-2.9906,-2.9917,-2.9925,-2.9924,-2.9931,-2.9938,-2.9935,-2.9941,-2.9941,-2.9941,-2.991,-2.9907,-2.9943,-2.9943,-2.9943,-2.9943,-2.9943,-2.9943,-2.9874,-2.9889,-2.9888,-2.9905,-2.9907,-2.9918,-2.9922,-2.9927,-2.993,-2.9943,-2.995,-2.995,-2.9952,-2.996,-2.9968,-2.9967,-2.9971,-2.9978,-2.9976,-2.9947,-2.9943,-2.9939,-2.9936,-2.9978,-2.9978,-3.0007,-3.0008,-3.0008]}]]